User: anonymous   Login
Location: Lecco
(45.8566°N, 9.3977°E)
Time: 12:29:34
(UTC+02:00)
Language:

Vanguard 2 Rocket - Orbit

View from above orbital plane
View from above orbital plane
View from above satellite
View from above satellite

Ground track
Ground track

The orbit data is extracted from the following two-line orbital elements,

1    12U 59001B   20219.92857296 +.00000140 +00000-0 +77552-4 0  9995
2    12 032.9003 174.3773 1664226 341.2860 013.2968 11.44298280285761
Epoch (UTC): 06 August 2020 22:17:08
Eccentricity: 0.1664226
inclination: 32.9003°
perigee height: 556 km
apogee height: 3324 km
right ascension of ascending node: 174.3773°
argument of perigee: 341.2860°
revolutions per day: 11.44298280
mean anomaly at epoch: 13.2968°
orbit number at epoch: 28576

The dashed part of the orbit path shows where the satellite is in the earth's shadow,  

DLR